This demonstration page uses our WeatherBlox Daily Observations layout. Learn more.

Hourly Observations for August 31, 2017

Temp ( °F °C ) Dew Point ( °F °C ) Humidity (%) Winds ( mph kmh ) Pressure ( in mb ) Visibility ( mi km ) Precip ( " mm )
12:15 am 00:15 Clear 63 17.2 59 15.2 88 88 SE 8 13 30.06 1018 10 16.09344 0 0
12:35 am 00:35 Clear 63 17.2 59 15 87 87 SE 7 11 30.06 1018 10 16.09344 0 0
12:55 am 00:55 Clear 64 17.7 59 15 84 84 SE 8 13 30.06 1018 10 16.09344 0 0
1:15 am 01:15 Clear 64 17.6 59 15 85 85 SE 5 7 30.06 1018 10 16.09344 0 0
1:35 am 01:35 Clear 63 17.1 59 14.8 86 86 SE 5 7 30.09 1019 10 16.09344 0 0
1:55 am 01:55 Clear 62 16.9 58 14.6 86 86 SSE 5 7 30.09 1019 10 16.09344 0 0
2:15 am 02:15 Clear 62 16.9 59 14.8 88 88 S 3 6 30.09 1019 10 16.09344 0 0
2:35 am 02:35 Clear 61 16.2 58 14.5 90 90 SE 6 9 30.09 1019 10 16.09344 0 0
2:55 am 02:55 Clear 60 15.8 57 14.1 90 90 SE 6 9 30.09 1019 10 16.09344 0 0
3:15 am 03:15 Clear 60 15.7 57 14.1 90 90 SE 3 6 30.09 1019 10 16.09344 0 0
3:35 am 03:35 Clear 60 15.6 57 14.1 91 91 Calm 30.09 1019 10 16.09344 0 0
3:55 am 03:55 Clear 59 15.2 57 14 93 93 Calm 30.09 1019 10 16.09344 0 0
4:15 am 04:15 Clear 59 14.9 56 13.5 91 91 SE 5 7 30.09 1019 10 16.09344 0 0
4:35 am 04:35 Clear 58 14.7 56 13.5 93 93 SSE 5 7 30.09 1019 10 16.09344 0 0
4:55 am 04:55 Clear 59 14.9 56 13.6 92 92 SSE 6 9 30.09 1019 10 16.09344 0 0
5:15 am 05:15 Clear 59 14.8 56 13.5 92 92 SSE 3 6 30.09 1019 10 16.09344 0 0
5:35 am 05:35 Clear 58 14.5 56 13.2 92 92 Calm 30.09 1019 10 16.09344 0 0
5:55 am 05:55 Clear 57 14.1 55 13 93 93 Calm 30.09 1019 10 16.09344 0 0
6:15 am 06:15 Clear 58 14.5 56 13.1 91 91 Calm 30.09 1019 10 16.09344 0 0
6:35 am 06:35 Clear 58 14.5 55 13 91 91 S 3 6 30.09 1019 10 16.09344 0 0
6:55 am 06:55 Clear 58 14.2 55 13 93 93 Calm 30.09 1019 10 16.09344 0 0
7:15 am 07:15 Sunny 57 14 55 13 94 94 Calm 30.09 1019 10 16.09344 0 0
7:35 am 07:35 Sunny 58 14.3 56 13.1 93 93 S 3 6 30.09 1019 10 16.09344 0 0
7:55 am 07:55 Sunny 58 14.5 56 13.1 91 91 Calm 30.09 1019 10 16.09344 0 0
8:15 am 08:15 Sunny 59 15.1 56 13.6 91 91 Calm 30.09 1019 10 16.09344 0 0
8:35 am 08:35 Sunny 61 15.9 57 14 89 89 Calm 30.09 1019 10 16.09344 0 0
8:55 am 08:55 Sunny 63 17.2 58 14.5 84 84 S 5 7 30.06 1018 10 16.09344 0 0
9:15 am 09:15 Sunny 65 18.2 58 14.7 80 80 S 5 7 30.06 1018 10 16.09344 0 0
9:35 am 09:35 Sunny 66 19 59 14.8 77 77 S 5 7 30.06 1018 10 16.09344 0 0
9:55 am 09:55 Sunny 68 20 59 15 73 73 S 5 7 30.06 1018 10 16.09344 0 0
10:15 am 10:15 Sunny 69 20.7 60 15.6 73 73 S 5 7 30.03 1017 10 16.09344 0 0
10:35 am 10:35 Sunny 70 21.2 59 14.9 67 67 S 7 11 30.06 1018 10 16.09344 0 0
10:55 am 10:55 Sunny 72 22.1 59 14.8 63 63 S 8 13 30.06 1018 10 16.09344 0 0
11:15 am 11:15 Sunny 73 22.5 59 14.9 62 62 S 8 13 30.06 1018 10 16.09344 0 0
11:35 am 11:35 Sunny 73 22.8 58 14.6 60 60 S 10 17 30.03 1017 10 16.09344 0 0
11:55 am 11:55 Sunny 73 22.7 58 14.4 60 60 SSE 12 19 30.03 1017 10 16.09344 0 0
12:15 pm 12:15 Sunny 74 23.5 58 14.6 57 57 S 8 13 30.03 1017 10 16.09344 0 0
12:35 pm 12:35 Sunny 75 24 58 14.3 55 55 S 9 15 30.03 1017 10 16.09344 0 0
12:55 pm 12:55 Sunny 75 24 59 14.8 57 57 S 7 11 30.03 1017 10 16.09344 0 0
1:15 pm 13:15 Sunny 76 24.4 59 14.9 56 56 S 9 15 30 1016 10 16.09344 0 0
1:35 pm 13:35 Sunny 76 24.5 58 14.5 54 54 SE 8 13 30 1016 10 16.09344 0 0
1:55 pm 13:55 Sunny 76 24.7 58 14.7 54 54 SSE 10 17 30 1016 10 16.09344 0 0
2:15 pm 14:15 Sunny 78 25.3 58 14.6 52 52 SSE 12 19 30 1016 10 16.09344 0 0
2:35 pm 14:35 Sunny 78 25.3 58 14.3 51 51 SSE 7 11 30 1016 10 16.09344 0 0
2:55 pm 14:55 Partly Cloudy 78 25.8 59 14.8 51 51 SSE 13 20 30 1016 10 16.09344 0 0
3:15 pm 15:15 Sunny 78 25.6 58 14.3 50 50 SSE 10 17 29.97 1015 10 16.09344 0 0
3:35 pm 15:35 Sunny 78 25.5 58 14.6 51 51 SE 12 19 29.97 1015 10 16.09344 0 0
3:55 pm 15:55 Sunny 79 26 58 14.6 49 49 SE 10 17 29.97 1015 10 16.09344 0 0
4:15 pm 16:15 Sunny 79 26 57 14.1 48 48 ESE 8 13 29.97 1015 10 16.09344 0 0
4:35 pm 16:35 Sunny 78 25.8 57 14.1 48 48 SE 10 17 29.97 1015 10 16.09344 0 0
4:55 pm 16:55 Sunny 80 26.5 58 14.4 47 47 SE 9 15 29.97 1015 10 16.09344 0 0
5:15 pm 17:15 Sunny 79 26.1 58 14.2 48 48 ESE 8 13 29.97 1015 10 16.09344 0 0
5:35 pm 17:35 Sunny 79 25.9 60 15.3 52 52 SE 7 11 29.97 1015 10 16.09344 0 0
5:55 pm 17:55 Sunny 78 25.6 59 15 52 52 ESE 9 15 29.97 1015 10 16.09344 0 0
6:15 pm 18:15 Sunny 77 25 60 15.3 55 55 ESE 10 17 29.97 1015 10 16.09344 0 0
6:35 pm 18:35 Sunny 77 25 60 15.4 55 55 ESE 8 13 29.94 1014 10 16.09344 0 0
7:15 pm 19:15 Sunny 73 23 61 16 65 65 ESE 6 9 30 1016 10 16.09344 0 0
7:35 pm 19:35 Sunny 71 21.9 62 16.6 72 72 ESE 5 7 29.97 1015 10 16.09344 0 0
7:55 pm 19:55 Sunny 71 21.4 63 17 76 76 ESE 6 9 29.97 1015 10 16.09344 0 0
8:15 pm 20:15 Clear 70 21.3 62 16.6 75 75 ESE 7 11 29.97 1015 10 16.09344 0 0
8:35 pm 20:35 Clear 69 20.8 62 16.5 77 77 ESE 8 13 29.97 1015 10 16.09344 0 0
8:55 pm 20:55 Clear 69 20.6 61 16.3 76 76 ESE 9 15 29.97 1015 10 16.09344 0 0
9:15 pm 21:15 Clear 69 20.3 61 16 76 76 ESE 8 13 30.03 1017 10 16.09344 0 0
9:35 pm 21:35 Clear 68 20.2 60 15.6 75 75 SE 8 13 30.03 1017 10 16.09344 0 0
9:55 pm 21:55 Clear 67 19.6 60 15.6 78 78 SE 8 13 30.03 1017 10 16.09344 0 0
10:15 pm 22:15 Clear 67 19.3 60 15.5 79 79 SE 7 11 30.03 1017 10 16.09344 0 0
10:35 pm 22:35 Clear 67 19.3 60 15.3 78 78 SE 7 11 30.03 1017 10 16.09344 0 0
10:55 pm 22:55 Clear 67 19.3 59 15.2 77 77 SE 5 7 30.03 1017 10 16.09344 0 0
11:15 pm 23:15 Clear 66 19 60 15.3 79 79 SE 6 9 30.03 1017 10 16.09344 0 0
11:35 pm 23:35 Clear 66 19 59 15.2 79 79 SSE 6 9 30.03 1017 10 16.09344 0 0
11:55 pm 23:55 Clear 67 19.2 59 14.9 76 76 SE 7 11 30.03 1017 10 16.09344 0 0

Powered by AerisWeather